www.pogodaiklimat.ru

Погода и климат >> Архив погоды >> Россия >> Нижегородская область >> Большое Болдино


ПОГОДА в Большом Болдино

  • Прогноз погоды в Большом Болдино
  • Монитор погоды в Большом Болдино

АРХИВ ПОГОДЫ в Большом Болдино

Время (UTC), дата Ветер
(напр.,м/с)
 
Видим.   Явления Облачность Т
(С)
Тd
(С)
f
(%)
Тe
(С)
Тes
(С)
Комфортность P
(гПа)
Po
(гПа)
Тmin
(С)
Tmax
(С)
R
(мм)
R24
(мм)
S
(см)
15 15.01 Ю 2-5
{6}
4000 м слаб. снег 10/0
[As op]
-0.9 -2.5 89 -5 -5 999.7 976.0 -0.8 1
18 15.01 Ю 2-6
{9}
10 км {снег} 10/0
[As op]
+0.1 -1.6 88 -4 -4 1000.2 976.6
21 15.01 Ю 1-3
{7}
10 км 10/0
[Ac und]
-0.6 -3.0 84 -3 -3 1001.4 977.6
00 16.01 Ю 1-1
{6}
10 км 10/0
[As op]
-0.8 -3.3 83 -3 -3 1001.9 978.1
03 16.01 С 1-1
{2}
4000 м слаб. снег 10/0
[As op]
-2.1 -3.3 91 -4 -4 1000.7 976.8 -2.3 0.6 31
06 16.01 СЗ 3-4
{5}
4000 м слаб. снег 10/0 300 м
[As op]
-2.4 -3.3 94 -8 -8 998.6 974.7 -2.5
09 16.01 СЗ 4-5
{5}
4000 м слаб. снег 10/0 330 м
[As op]
-2.6 -3.2 96 -9 -9 996.8 972.9
12 16.01 СЗ 5-5
{6}
4000 м слаб. снег 10/0 300 м
[As op]
-3.1 -3.8 95 -10 -10 994.5 970.6
15 16.01 СЗ 4-6
{7}
4000 м снег 10/0 270 м
[As op]
-4.1 -4.6 96 -11 -11 994.8 970.9 -2.0 14
18 16.01 З 5-6
{8}
4000 м слаб. снег 10/0 300 м
[As op]
-5.1 -5.8 95 -12 -12 997.9 973.7
21 16.01 З 4-5
{8}
10 км {снег} 10/10 360 м
[Sc]
-5.7 -6.8 92 -12 -12 1000.4 976.2
00 17.01 З 6-8
{9}
20 км {снег} 10/10 420 м
[Sc]
-7.1 -9.2 85 -15 -15 1003.9 979.4
03 17.01 З 6-8
{10}
20 км 10/10 450 м
[Sc]
-8.2 -10.1 86 -17 -17 1006.0 981.4 -8.5 4 43
06 17.01 Ю 2-5
{8}
20 км 10/3 600 м
[Sc Ac trans Cc]
-8.5 -10.0 89 -13 -13 1008.1 983.4
09 17.01 Ю 3-7
{9}
20 км {снег} 10/3 600 м
[Sc Ac und]
-6.9 -9.4 82 -13 -12 1009.0 984.4
12 17.01 Ю 3-6
{9}
20 км {снег} 10/0
[Ac und]
-6.3 -8.6 84 -12 -12 1008.8 984.3
15 17.01 Ю 5-9
{10}
20 км 10/10 360 м
[Sc]
-6.2 -8.5 84 -14 -14 1009.1 984.6 -5.9 0.0
18 17.01 Ю 5-11
{15}
20 км позёмок 10/4 300 м
[Sc Ac und]
-6.9 -8.9 86 -14 -14 1008.4 983.8
21 17.01 Ю 5-10
{12}
20 км позёмок 10/0
[As op]
-6.3 -8.6 84 -14 -14 1006.6 982.2
00 18.01 Ю 4-9
{16}
10 км сильный позёмок 10/0
[As op]
-6.0 -8.3 84 -13 -13 1003.8 979.4
03 18.01 ЮЗ 6-12
{16}
20 км сильный позёмок 10/10 480 м
[Sc]
-5.6 -8.2 82 -13 -13 1003.2 978.9 -6.9 41
06 18.01 ЮЗ 7-12
{13}
10 км сильный позёмок 10/10 570 м
[Sc]
-3.9 -5.8 87 -12 -12 1004.0 979.8
09 18.01 Ю 6-12
{13}
10 км позёмок 10/6 630 м
[Sc Ac und]
-3.3 -5.0 88 -11 -11 1004.9 980.8
12 18.01 Ю 5-10
{12}
10 км позёмок 10/0
[Ac und]
-2.2 -4.4 85 -9 -9 1005.9 981.9
15 18.01 Ю 4-7
{11}
10 км {метель} 10/0
[As op]
-2.0 -3.8 87 -8 -8 1007.4 983.3 -2.0
18 18.01 ЮЗ 6-11
{11}
10 км {метель} 10/0
[As op]
-1.7 -3.4 88 -9 -9 1007.2 983.2
21 18.01 Ю 4-9
{11}
10 км 10/0
[As op]
-1.2 -2.5 91 -7 -7 1005.8 981.9
00 19.01 Ю 5-10
{11}
10 км 10/6 480 м
[Sc Ac und]
-0.8 -2.1 91 -7 -7 1004.4 980.6
03 19.01 Ю 4 20 км 10/10 420 м
[Sc]
-0.2 -1.7 90 -6 -6 1004.4 980.6 -2.0 39
06 19.01 ЮЗ 3-6
{9}
10 км {снег} 10/10 540 м
[Sc]
+0.4 -1.8 85 -4 -4 1004.7 981.0
09 19.01 ЮЗ 4-8
{10}
10 км 10/4 600 м
[Sc Ac und]
+0.6 -2.8 78 -5 -4 1005.3 981.6
12 19.01 СЗ 4-5
{11}
10 км {снег, метель} 10/4 600 м
[Sc Ac und]
-2.9 -6.0 79 -9 -9 1008.2 984.0
15 19.01 ЮЗ 1-2
{6}
10 км 10/0
[Ac und]
-6.8 -10.1 77 -9 -9 1009.7 985.1 +0.8 0.3
18 19.01 ЮЗ 3-3
{3}
20 км 4/0
[Ac trans]
-9.4 -11.9 82 -15 -15 1010.9 986.1
21 19.01 ЮЗ 2-4
{4}
20 км 4/0
[Ac trans]
-9.1 -11.6 82 -14 -14 1011.8 987.0
00 20.01 ЮЗ 2-3
{4}
20 км 6/0
[Ac trans]
-10.4 -12.4 85 -15 -15 1012.3 987.4
03 20.01 ЮЗ 2-5
{5}
20 км 10/0
[Ac und]
-9.8 -11.9 85 -14 -14 1013.4 988.4 -10.8 39
06 20.01 ЮЗ 3-4
{7}
20 км 4/0
[Ac trans]
-11.6 -13.6 85 -18 -17 1015.9 990.8 -11.8
09 20.01 ЮЗ 1-2
{6}
20 км 4/0
[Ci fib]
-10.1 -13.7 75 -12 -11 1017.1 992.1
12 20.01 Ю 4-8
{9}
20 км 4/0
[Ci fib]
-7.1 -11.4 71 -14 -14 1016.0 991.3
15 20.01 Ю 3-6
{8}
20 км 3/0
[Ci fib]
-8.8 -12.6 74 -15 -15 1015.4 990.5 -6.9
18 20.01 Ю 5-9
{11}
20 км 3/0
[Ci fib]
-8.1 -11.7 75 -16 -16 1013.9 989.1
21 20.01 ЮЗ 4-8
{10}
20 км 10/0
[Ac und]
-7.6 -10.2 82 -14 -14 1013.6 988.9
00 21.01 Ю 6-11
{11}
20 км 10/0
[Ac und]
-7.7 -10.3 82 -16 -16 1012.4 987.7
03 21.01 Ю 6-9
{11}
20 км позёмок 10/0
[Ac und]
-7.9 -10.1 84 -16 -16 1011.7 987.0 -8.8 39
06 21.01 Ю 5-8
{11}
20 км позёмок 10/0
[Ac und]
-8.5 -10.4 86 -16 -16 1011.4 986.7
09 21.01 Ю 4-9
{11}
2000 м снег {метель} 10/0
[As op]
-9.4 -11.0 88 -16 -16 1011.2 986.4
12 21.01 Ю 4-6
{10}
2000 м снег {метель} 10/0
[As op]
-9.2 -10.8 88 -16 -16 1009.9 985.1
15 21.01 ЮЗ 1-2
{7}
4000 м слаб. снег {метель} 10/0
[As op]
-10.4 -11.7 90 -13 -13 1009.0 984.1 -7.7 2
18 21.01 ЮЗ 2-3
{4}
20 км {снег, метель} 10/0
[Ac und]
-10.8 -12.1 90 -15 -15 1008.8 983.8
21 21.01 ЮЗ 2-4
{4}
20 км {снег} 8/0
[Ci fib]
-12.7 -14.0 90 -17 -17 1009.4 984.2
00 22.01 З 2-3
{5}
10 км слаб. снег 10/0
[As op]
-12.1 -13.4 90 -17 -17 1009.8 984.7
03 22.01 З 5-6
{6}
20 км {снег} ясно -15.7 -17.6 85 -25 -25 1011.1 985.6 -15.7 0.9 41
06 22.01 ЮЗ 3-4
{6}
10 км {снег} 4/0
[Ac cast]
-17.7 -19.6 85 -25 -25 1012.6 986.9
09 22.01 ЮЗ 3-4
{5}
20 км 5/0
[Ci fib]
-17.0 -18.9 85 -24 -23 1013.7 988.0
12 22.01 ЮЗ 5-6
{7}
20 км 8/0
[Ci sp]
-15.4 -18.1 80 -24 -24 1014.8 989.3

 

Местоположение метеостанции Большое Болдино (Нижегородская область, Россия): широта 55.02 долгота 45.32 высота над уровнем моря 192 м.

В архиве по умолчанию представлена погода в Большом Болдино за последнюю неделю. Архивные данные за месяц целиком и за предыдущие месяцы, начиная с января 2011 года, Вы можете получить, выбрав интересующий диапазон дат из раскрывающегося списка и нажав кнопку "Ввод!".


*Определитесь, кто Вы:
робот инопланетянин человек

Внимание! Время в таблицах - всемирное. Для получения местного времени необходимо прибавить поправку, которая равна 3 ч.

Смотрите также архив погоды в соседних городах и на ближайших метеорологических станциях:

Погода в Лукоянове (Нижегородская область, Россия) (52 км)
Погода в Сергаче (Нижегородская область, Россия) (58 км)
Погода в Порецком (Чувашия, Россия) (67 км)
Погода в Алатыре (Чувашия, Россия) (84 км)
Погода в Саранске (Мордовия, Россия) (99 км)
Погода в Больших Березниках (Мордовия, Россия) (104 км)
Погода в Арзамасе (Нижегородская область, Россия) (105 км)
Погода в Сурском (Ульяновская область, Россия) (107 км)
Погода в Лысково (Нижегородская область, Россия) (112 км)
Погода в Дальнем Константиново (Нижегородская область, Россия) (117 км)

Пояснения к столбцам:

Ветер - указаны скорость ветра в м/с - средняя за 10 мин, порывы в срок и между сроками (в фигурных скобках) и направление, откуда дует ветер: С - северный, СВ - северо-восточный, В - восточный, ЮВ - юго-восточный, Ю - южный, ЮЗ - юго-западный, З - западный, СЗ - северо-западный.
Видимость - горизонтальная дальность видимости в метрах или километрах. При видимости от 1 до 10 км при отсутствии осадков обычно наблюдается дымка, при ухудшении видимости до 1 км и менее - туман. В сухую погоду видимость может ухудшаться дымом, пылью или мглою.
Явления - указаны атмосферные явления, наблюдавшиеся в срок или в последний час перед сроком; фигурными скобками обозначены явления, наблюдавшиеся между сроками (за 1-3 часа до срока); квадратными скобками обозначены град или гололедные отложения с указанием их диаметра в мм.
Облачность - указаны через наклонную черту общая и нижняя облачность в баллах и высота нижней границы облаков в метрах; квадратными скобками обозначены формы облаков: Ci - перистые, Cs - перисто-слоистые, Cc - перисто-кучевые, Ac - высококучевые, As - высокослоистые, Sc - слоисто-кучевые, Ns - слоисто-дождевые, Cu - кучевые, Cb - кучево-дождевые. Подробнее классификацию облаков см. в Атласе облаков (PDF).
T - Температура воздуха - температура, измеренная на высоте 2 м над землей.
Td - Температура точки росы - температура, при понижении до которой содержащийся в воздухе водяной пар достигнет насыщения.
f - Относительная влажность воздуха - влажноcть воздуха, измеренная на высоте 2 м над землей.
Te - Эффективная температура - температура, которую ощущает одетый по сезону человек в тени. Характеристика душности погоды. При расчете учитывается влияние влажности воздуха и скорости ветра на теплоощущения человека.
Tes - Эффективная температура на солнце - температура, которую ощущает человек, с поправкой на солнечный нагрев. Характеристика знойности погоды. Зависит от высоты солнца над горизонтом, облачности и скорости ветра. Ночью, в пасмурную погоду, а также при ветре 12 м/с и более поправка равна нулю.
P - Атмосферное давление - приведенное к уровню моря атмосферное давление.
Po - Атмосферное давление - измеренное на уровне метеостанции атмосферное давление.
Tmin - Минимальная температура - минимум температуры воздуха на высоте 2 м над землей.
Tmax - Максимальная температура - максимум температуры воздуха на высоте 2 м над землей.
R - Количество осадков - Количество выпавших осадков за период времени, мм. При наведении курсора мыши на число - период времени, за который выпало указанное количество осадков.
R24 - Количество осадков - Количество выпавших осадков за 24 часа, мм.
S - Снежный покров - Высота снежного покрова, см. При наведении курсора мыши на число - состояние снежного покрова и степень покрытия местности в баллах.